Regional Weather Roundup
Issued by NWS

Home | Current Version | Previous Version | Text Only | Print | Product List | Glossary On
Versions: 1 2 3 4 5 6 7 8 9 10 11 12 13 14 15 16 17 18 19 20 21 22 23 24 25 26 27 28 29 30 31 32 33 34 35 36 37 38 39 40 41 42 43 44 45 46 47 48 49 50
000
ASUS43 KDTX 200610
RWRMI
MICHIGAN HOURLY REGIONAL WEATHER ROUNDUP
NATIONAL WEATHER SERVICE DETROIT/PONTIAC MI
ISSUED BY NATIONAL WEATHER SERVICE GRAND RAPIDS MI
200 AM EDT THU JUL 20 2017

NOTE: "FAIR" INDICATES FEW OR NO CLOUDS BELOW 12,000 FEET WITH NO
SIGNIFICANT WEATHER AND/OR OBSTRUCTION TO VISIBILITY.

MIZ047>049-052>055-059>063-066>070-074>076-081>083-200700-
SOUTHEAST LOWER MICHIGAN

CITY           SKY/WX    TMP DP  RH WIND       PRES   REMARKS
ADRIAN         CLOUDY    73  70  90 W5        30.04F
6HR MIN TEMP:  72; 6HR MAX TEMP:  84;

ALMA           CLOUDY    67  63  87 SW5       29.98F
ANN ARBOR      PTCLDY    69  69 100 CALM      30.02F FOG
BAD AXE        MOCLDY    65  62  89 CALM      30.03F
6HR MIN TEMP:  64; 6HR MAX TEMP:  76;

DETROIT CITY   PTCLDY    73  68  84 CALM      30.04S
6HR MIN TEMP:  73; 6HR MAX TEMP:  84;

DETROIT        CLOUDY    74  71  91 CALM      30.04F
6HR MIN TEMP:  74; 6HR MAX TEMP:  81; 6HR PCP: TRACE;

FLINT          CLOUDY    71  68  90 SE8       30.01F
6HR MIN TEMP:  71; 6HR MAX TEMP:  85;

GROSSE ILE     MOCLDY    73  71  93 CALM      30.01F
6HR MIN TEMP:  72; 6HR MAX TEMP:  80;

HILLSDALE      MOCLDY    73  70  88 S5        30.04F
HOWELL         CLOUDY    73  69  87 SE3       30.02F
6HR MIN TEMP:  73; 6HR MAX TEMP:  83;


CITY           SKY/WX    TMP DP  RH WIND       PRES   REMARKS
JACKSON        PTCLDY    75  71  87 S6        30.02F
6HR MIN TEMP:  71; 6HR MAX TEMP:  83;

LANSING        CLOUDY    75  69  81 S6        30.00F
6HR MIN TEMP:  75; 6HR MAX TEMP:  86;

MASON          MOCLDY    73  71  96 CALM      30.02F
MONROE         PTCLDY    71  71  98 CALM      30.02S
6HR MIN TEMP:  70; 6HR MAX TEMP:  77;

MT. CLEMENS    MOCLDY    69  67  92 CALM      30.03S
6HR MIN TEMP:  69; 6HR MAX TEMP:  79;

PONTIAC        MOCLDY    72  67  84 SE5       30.03F
6HR MIN TEMP:  72; 6HR MAX TEMP:  85;

PORT HOPE        N/A     67  61  81 S5        30.01F
6HR MIN TEMP:  66; 6HR MAX TEMP:  70;

PORT HURON     MOCLDY    64  63  94 CALM      30.03F
TRI CITIES     CLOUDY    72  70  93 SE7       29.99F
6HR MIN TEMP:  71; 6HR MAX TEMP:  83;

YPSILANTI      PTCLDY    74  71  91 SW3       30.03F
6HR MIN TEMP:  72; 6HR MAX TEMP:  82;

$$
MIZ043>046-050>051-056>058-064>065-071>073-077>080-200700-
SOUTHWEST LOWER MICHIGAN

CITY           SKY/WX    TMP DP  RH WIND       PRES   REMARKS
BATTLE CREEK   CLOUDY    75  72  90 S12       30.00F
6HR MIN TEMP:  73; 6HR MAX TEMP:  84;

BENTON HARBOR  CLOUDY    73  66  78 W6        30.00F
6HR MIN TEMP:  71; 6HR MAX TEMP:  78;

BIG RAPIDS     CLOUDY    65  61  86 CALM      29.96F
6HR MIN TEMP:  65; 6HR MAX TEMP:  79;

COLDWATER      CLOUDY    74  74 100 S3        30.02F
6HR MIN TEMP:  73; 6HR MAX TEMP:  82;

HOLLAND        CLOUDY    73  64  73 S13G31    29.90F
6HR MIN TEMP:  68; 6HR MAX TEMP:  78;

GRAND RAPIDS   CLOUDY    73  69  87 SE8       29.96F
6HR MIN TEMP:  73; 6HR MAX TEMP:  84;

KALAMAZOO      CLOUDY    76  68  76 SW13      30.00F
6HR MIN TEMP:  73; 6HR MAX TEMP:  84;

MARSHALL       CLOUDY    74  74  98 S3        30.00F
6HR MIN TEMP:  73; 6HR MAX TEMP:  82;

MOUNT PLEASANT CLOUDY    67  64  90 CALM      29.97F
6HR MIN TEMP:  67; 6HR MAX TEMP:  82;

MUSKEGON       CLOUDY    75  61  61 S12       29.95R
6HR MIN TEMP:  70; 6HR MAX TEMP:  83;

STURGIS        CLOUDY    73  72  95 MISG      30.02F
6HR MIN TEMP:  73; 6HR MAX TEMP:  85;

$$
MIZ016>042-200700-
NORTHERN LOWER MICHIGAN

CITY           SKY/WX    TMP DP  RH WIND       PRES   REMARKS
ALPENA         PTCLDY    59  58  96 CALM      30.00F
6HR MIN TEMP:  58; 6HR MAX TEMP:  80;

BEAVER ISLAND  MOCLDY    60  59  98 E5        29.95F
6HR MIN TEMP:  59; 6HR MAX TEMP:  74;

BELLAIRE       CLOUDY    57  55  94 CALM      29.97F
6HR MIN TEMP:  56; 6HR MAX TEMP:  76;

CADILLAC       CLOUDY    68  51  53 CALM      29.97F
CHARLEVOIX     CLOUDY    64  58  81 SE5       29.99F
GAYLORD        CLOUDY    62  52  69 SE5       30.01F
6HR MIN TEMP:  61; 6HR MAX TEMP:  78;

HOUGHTON LAKE  CLOUDY    62  58  86 E5        30.00F
6HR MIN TEMP:  61; 6HR MAX TEMP:  79;

MANISTEE       CLOUDY    64  62  93 E6        29.93F
OSCODA         CLOUDY    61  59  92 CALM      30.01F
6HR MIN TEMP:  61; 6HR MAX TEMP:  73;

PELLSTON       MOCLDY    56  55  97 CALM      29.98F
6HR MIN TEMP:  56; 6HR MAX TEMP:  76;

TRAVERSE CITY  CLOUDY    64  55  72 CALM      29.94F
6HR MIN TEMP:  63; 6HR MAX TEMP:  77;

LUDINGTON      CLOUDY    67  62  83 CALM      29.95S
6HR MIN TEMP:  63; 6HR MAX TEMP:  72;

$$
MIZ007>008-015-200700-
EASTERN UPPER MICHIGAN

CITY           SKY/WX    TMP DP  RH WIND       PRES   REMARKS
MACKINAC ISLAN CLOUDY    61  55  83 NE3       29.97F
6HR MIN TEMP:  60; 6HR MAX TEMP:  69;

NEWBERRY       CLOUDY    61  60  97 CALM      29.98F
6HR MIN TEMP:  61; 6HR MAX TEMP:  74;

S. S. MARIE    CLOUDY    64  56  75 E3        29.97F
6HR MIN TEMP:  62; 6HR MAX TEMP:  71;

$$
MIZ004>006-011>014-085-200700-
CENTRAL UPPER MICHIGAN

CITY           SKY/WX    TMP DP  RH WIND       PRES   REMARKS
MANISTIQUE     CLOUDY    58  55  89 CALM      29.94F
6HR MIN TEMP:  58; 6HR MAX TEMP:  67;

ESCANABA       CLOUDY    60  58  92 CALM      29.93F
6HR MIN TEMP:  59; 6HR MAX TEMP:  73;

MENOMINEE      CLOUDY    69  58  67 S6        29.94
6HR MIN TEMP:  67; 6HR MAX TEMP:  76; 6HR PCP: TRACE;

SAWYER-GWINN   CLOUDY    63  57  83 CALM      29.96F
6HR MIN TEMP:  63; 6HR MAX TEMP:  74;

$$
MIZ001>003-009>011-084-200700-
WESTERN UPPER MICHIGAN

CITY           SKY/WX    TMP DP  RH WIND       PRES   REMARKS
IRON MOUNTAIN  CLOUDY    65  55  70 CALM      29.94S
6HR MIN TEMP:  62; 6HR MAX TEMP:  77;

HOUGHTON       CLEAR     64  56  75 E3        29.92F
6HR MIN TEMP:  64; 6HR MAX TEMP:  70; 6HR PCP: TRACE;

COPPER HARBOR    N/A     66  53  63 SW10G20   29.91F
6HR MIN TEMP:  58; 6HR MAX TEMP:  68;

IRONWOOD       PTCLDY    57  57 100 CALM      29.94S FOG
6HR MIN TEMP:  57; 6HR MAX TEMP:  77;

$$

ABBREVIATIONS USED IN REMARKS
   TC - TEMPERATURE IN CELSIUS
  WCI - WIND CHILL INDEX
   HX - HEAT INDEX
  VSB - VISIBILITY





USA.gov is the U.S. government's official web portal to all federal, state and local government web resources and services.